Regional Weather Roundup
Issued by NWS

Home | Current Version | Previous Version | Graphics & Text | Print | Product List | Glossary Off
Versions: 1 2 3 4 5 6 7 8 9 10 11 12 13 14 15 16 17 18 19 20 21 22 23 24 25 26 27 28 29 30 31 32 33 34 35 36 37 38 39 40 41 42 43 44 45 46 47 48 49 50

000
ASUS43 KFSD 211802
RWRSD

WEATHER ROUNDUP FOR SOUTH DAKOTA
NATIONAL WEATHER SERVICE SIOUX FALLS SD
100 PM CDT SAT APR 21 2018

NOTE: "FAIR" INDICATES FEW OR NO CLOUDS BELOW 12,000 FEET WITH NO
SIGNIFICANT WEATHER AND/OR OBSTRUCTIONS TO VISIBILITY.


SDZ001>005-009-010-012>017-211900-
NORTHWEST AND NORTH CENTRAL SOUTH DAKOTA

CITY           SKY/WX    TMP DP  RH WIND       PRES   REMARKS
BUFFALO          N/A     57  35  43 S23       30.07F
FAITH            N/A     48  40  73 S20       30.21F
MOBRIDGE       PTSUNNY   56  37  49 S18       30.24F
$$

SDZ012>016-024>037-041>051-057-063-072>074-211900-
SOUTHWEST AND SOUTH CENTRAL SOUTH DAKOTA

CITY           SKY/WX    TMP DP  RH WIND       PRES   REMARKS
RAPID CTY ARPT MOSUNNY   50  37  61 SW10G18   30.18F
PIERRE         CLOUDY    46  41  82 SE9       30.29F
CUSTER         CLOUDY    38  33  82 VRB3      30.17F
ELLSWORTH AFB  SUNNY    N/A N/A N/A S17       30.17F
PHILIP         CLOUDY    45  40  82 SE14      30.26S
PINE RIDGE     CLOUDY    37  36  96 CALM      30.24F
SPEARFISH      PTSUNNY   54  37  54 NE9G15    30.14F
WINNER         LGT RAIN  43  38  82 SE5       30.32R
$$

SDZ004>011-016>023-039-040-211900-
NORTHEAST SOUTH DAKOTA

CITY           SKY/WX    TMP DP  RH WIND       PRES   REMARKS
ABERDEEN       MOSUNNY   57  38  48 S15G23    30.33F
WATERTOWN      CLOUDY    52  36  54 SE12      30.34S
BROOKINGS      CLOUDY    48  34  58 E8        30.36S
SISSETON         N/A     56  40  55 S10       30.33F
$$

SDZ017-020-022-023-036>040-048>070-211900-
SOUTHEAST SOUTH DAKOTA

CITY           SKY/WX    TMP DP  RH WIND       PRES   REMARKS
SIOUX FALLS    CLOUDY    47  34  60 E6        30.34S
HURON          CLOUDY    44  33  65 S8        30.34F
CHAMBERLAIN    CLOUDY    47  43  88 CALM      30.33R
MITCHELL       CLOUDY    46  37  71 CALM      30.35S
YANKTON        PTSUNNY   48  35  60 E6        30.33R
$$

ABBREVIATIONS USED IN REMARKS
   TC - TEMPERATURE IN CELSIUS
  WCI - WIND CHILL INDEX
   HX - HEAT INDEX
  VSB - VISIBILITY





USA.gov is the U.S. government's official web portal to all federal, state and local government web resources and services.